Zurück zum Katalog

STARLINK-37102

AktivKommunikationVLEO
NORAD 68183·PAYLOAD·🇺🇸 United States

Gestartet Mar 14, 2026 von Vandenberg Space Force Base

Loading…

Nächste Überflüge (nächste 24 Stunden)

TLE

AktuellSource: CelesTrak SupGP

Epoche: Sep 15, 2026, 03:08 UTC

1 68183C 26050S   26258.13104167  .00005042  00000+0  14894-3 0  2582
2 68183  53.1567 102.7568 0001141  85.8283 312.8164 15.34390803    17

Verfolge STARLINK-37102 in Echtzeit mit AllMySat

Download on the App Store